Weather History for Panama City Tyndall AFB, FL

Change the Weather History Date:

Sunday, November 4, 2012

  Actual Average Record
Temperature  
Mean Temperature 67 °F -  
Max Temperature 76 °F 74 °F 86 °F (2003)
Min Temperature 58 °F 55 °F 42 °F (1999)
Cooling Degree Days 2    
Growing Degree Days 17 (Base 50)    
Moisture  
Dew Point 64 °F    
Average Humidity 98    
Maximum Humidity 100    
Minimum Humidity 84    
Precipitation  
Precipitation 0.01 in - - ()
Sea Level Pressure  
Sea Level Pressure 30.08 in    
Wind  
Wind Speed 3 mph (West)    
Max Wind Speed 13 mph    
Max Gust Speed -    
Visibility 4 miles    
Events Fog    
Averages and records for this station are not official NWS values.
T = Trace of Precipitation, MM = Missing Value Source: NWS Daily Summary

Daily Weather History Graph

Daily Weather History Graph

Search for Another Location

Airport:

Trip Planner

Search our weather history database for the weather conditions in past years. The results will help you decide how hot, cold, wet, or windy it might be!

Date:

Astronomy

Nov. 04, 2012 Rise Set
Actual Time 5:58 AM CST 4:52 PM CST
Civil Twilight 5:34 AM CST 5:17 PM CST
Nautical Twilight 5:05 AM CST 5:45 PM CST
Astronomical Twilight 4:37 AM CST 6:13 PM CST
Moon 9:33 PM CST (11/4) 10:37 AM CST (11/4)
Length of Visible Light 11h 43m
Length of Day
10h 53m
Waning Gibbous, 72% of the Moon is Illuminated
Nov 4
Waning Gibbous
Nov 6
Last Quarter
Nov 13
New
Nov 20
First Quarter
Nov 28
Full

Hourly Weather History & Observations

Time (CST) Temp. Dew Point Humidity Pressure Visibility Wind Dir Wind Speed Gust Speed Precip Events Conditions
12:11 AM 64.4 °F 64.4 °F 100% 30.09 in 8.0 mi WSW 4.6 mph - N/A   Clear
12:20 AM 66.2 °F 66.2 °F 100% 30.10 in 6.0 mi WSW 4.6 mph - N/A   Clear
12:53 AM 66.2 °F 66.2 °F 100% 30.09 in 4.0 mi SW 3.5 mph - N/A   Clear
12:55 AM 65.7 °F 65.7 °F 100% 30.09 in 2.5 mi SW 3.5 mph - N/A   Clear
12:56 AM 66.2 °F 66.2 °F 100% 30.09 in 2.0 mi SW 3.5 mph - N/A   Clear
12:59 AM 64.4 °F 64.4 °F 100% 30.09 in 1.8 mi SW 3.5 mph - N/A   Clear
1:08 AM 64.4 °F 64.4 °F 100% 30.09 in 1.2 mi Calm Calm - N/A   Clear
1:15 AM 64.4 °F 64.4 °F 100% 30.09 in 0.5 mi Calm Calm - N/A Fog Fog
1:20 AM 64.4 °F 64.4 °F 100% 30.09 in 0.5 mi Calm Calm - N/A Fog Fog
1:21 AM 64.4 °F 64.4 °F 100% 30.09 in 0.8 mi Calm Calm - N/A   Clear
1:32 AM 62.6 °F 62.6 °F 100% 30.09 in 0.8 mi SW 3.5 mph - N/A   Clear
1:34 AM 62.6 °F 62.6 °F 100% 30.09 in 1.0 mi SW 3.5 mph - N/A   Clear
1:38 AM 62.6 °F 62.6 °F 100% 30.09 in 1.5 mi WSW 3.5 mph - N/A   Clear
1:49 AM 64.4 °F 64.4 °F 100% 30.09 in 1.8 mi WSW 4.6 mph - N/A   Clear
1:50 AM 64.4 °F 64.4 °F 100% 30.09 in 2.0 mi WSW 4.6 mph - N/A   Clear
1:55 AM 64.2 °F 64.2 °F 100% 30.09 in 2.5 mi WSW 3.5 mph - N/A   Clear
1:59 AM 62.6 °F 62.6 °F 100% 30.09 in 1.2 mi Calm Calm - N/A   Clear
1:01 AM 62.6 °F 62.6 °F 100% 30.09 in 0.8 mi Calm Calm - N/A   Clear
1:19 AM 64.4 °F 64.4 °F 100% 30.09 in 0.5 mi Calm Calm - N/A Fog Fog
1:29 AM 64.4 °F 64.4 °F 100% 30.09 in 0.2 mi Calm Calm - N/A Fog Fog
1:39 AM 62.6 °F 62.6 °F 100% 30.09 in 0.2 mi Calm Calm - N/A Fog Fog
1:40 AM 60.8 °F 60.8 °F 100% 30.09 in 0.5 mi Calm Calm - N/A Fog Fog
1:47 AM 62.6 °F 62.6 °F 100% 30.08 in 3.0 mi Calm Calm - N/A   Clear
1:55 AM 62.2 °F 62.2 °F 100% 30.08 in 0.8 mi Calm Calm - N/A   Clear
1:58 AM 62.6 °F 62.6 °F 100% 30.08 in 0.2 mi Calm Calm - N/A Fog Fog
1:59 AM 62.6 °F 62.6 °F 100% 30.08 in 0.2 mi Calm Calm - N/A Fog Fog
2:52 AM 60.8 °F 60.8 °F 100% 30.08 in 0.2 mi Calm Calm - N/A Fog Fog
2:55 AM 60.4 °F 60.4 °F 100% 30.08 in 0.5 mi Calm Calm - N/A Fog Fog
3:04 AM 60.8 °F 60.8 °F 100% 30.08 in 0.2 mi Calm Calm - N/A Fog Fog
3:39 AM 59.0 °F 59.0 °F 100% 30.09 in 0.5 mi Calm Calm - N/A Fog Fog
3:55 AM 59.0 °F 59.0 °F 100% 30.08 in 0.5 mi Calm Calm - N/A Fog Fog
3:59 AM 59.0 °F 59.0 °F 100% 30.08 in 0.5 mi Calm Calm - N/A Fog Fog
4:02 AM 59.0 °F 59.0 °F 100% 30.08 in 0.8 mi Calm Calm - N/A   Clear
4:05 AM 59.0 °F 59.0 °F 100% 30.08 in 0.5 mi Calm Calm - N/A Fog Fog
4:09 AM 59.0 °F 59.0 °F 100% 30.08 in 0.5 mi Calm Calm - N/A Fog Fog
4:17 AM 59.0 °F 59.0 °F 100% 30.07 in 0.5 mi Calm Calm - N/A Fog Fog
4:18 AM 59.0 °F 59.0 °F 100% 30.08 in 0.8 mi Calm Calm - N/A   Clear
4:21 AM 59.0 °F 59.0 °F 100% 30.07 in 1.0 mi Calm Calm - N/A   Clear
4:24 AM 59.0 °F 59.0 °F 100% 30.07 in 1.5 mi Calm Calm - N/A   Clear
4:25 AM 59.0 °F 59.0 °F 100% 30.07 in 1.5 mi Calm Calm - N/A   Clear
4:31 AM 59.0 °F 59.0 °F 100% 30.07 in 5.0 mi Calm Calm - N/A   Clear
4:55 AM 58.6 °F 58.6 °F 100% 30.08 in 9.0 mi Calm Calm - N/A   Clear
5:16 AM 59.0 °F 59.0 °F 100% 30.08 in 1.2 mi Calm Calm - N/A   Clear
5:18 AM 59.0 °F 59.0 °F 100% 30.08 in 0.8 mi Calm Calm - N/A   Clear
5:21 AM 59.0 °F 59.0 °F 100% 30.08 in 0.5 mi Calm Calm - N/A Fog Fog
5:22 AM 59.0 °F 59.0 °F 100% 30.08 in 0.5 mi Calm Calm - N/A Fog Fog
5:26 AM 59.0 °F 59.0 °F 100% 30.08 in 0.8 mi Calm Calm - N/A   Clear
5:37 AM 59.0 °F 59.0 °F 100% 30.09 in 0.5 mi Calm Calm - N/A Fog Fog
5:43 AM 59.0 °F 59.0 °F 100% 30.09 in 0.5 mi Calm Calm - N/A Fog Fog
5:46 AM 59.0 °F 59.0 °F 100% 30.09 in 0.2 mi Calm Calm - N/A Fog Fog
5:55 AM 58.5 °F 58.5 °F 100% 30.09 in 0.2 mi Calm Calm - N/A Fog Fog
6:26 AM 59.0 °F 59.0 °F 100% 30.10 in 0.2 mi Calm Calm - N/A Fog Fog
6:28 AM 59.0 °F 59.0 °F 100% 30.10 in 0.5 mi Calm Calm - N/A Fog Fog
6:35 AM 59.0 °F 59.0 °F 100% 30.10 in 6.0 mi Calm Calm - N/A   Clear
6:55 AM 61.5 °F 61.5 °F 100% 30.10 in 10.0 mi Calm Calm - N/A   Clear
7:55 AM 70.3 °F 70.3 °F 100% 30.12 in 10.0 mi West 10.4 mph - N/A   Clear
8:05 AM 69.8 °F 69.8 °F 100% 30.12 in 10.0 mi West 10.4 mph - N/A   Light Drizzle
8:55 AM 72.9 °F 70.7 °F 93% 30.10 in 10.0 mi West 10.4 mph - 0.01 in   Light Drizzle
9:13 AM 73.4 °F 71.6 °F 94% 30.10 in 10.0 mi West 11.5 mph - N/A   Light Drizzle
9:24 AM 73.4 °F 69.8 °F 88% 30.10 in 10.0 mi West 10.4 mph - N/A   Light Drizzle
9:55 AM 74.8 °F 71.1 °F 88% 30.10 in 10.0 mi West 12.7 mph - 0.00 in   Light Drizzle
10:55 AM 75.4 °F 70.5 °F 85% 30.08 in 10.0 mi West 10.4 mph - 0.00 in   Light Drizzle
11:55 AM 76.1 °F 71.1 °F 84% 30.06 in 10.0 mi West 11.5 mph - 0.00 in   Light Drizzle
12:55 PM 76.1 °F 71.1 °F 84% 30.03 in 10.0 mi West 10.4 mph - 0.00 in   Light Drizzle
1:55 PM 73.8 °F 70.2 °F 88% 30.02 in 10.0 mi West 12.7 mph - 0.00 in   Light Drizzle
2:55 PM 74.1 °F 70.7 °F 89% 30.01 in 10.0 mi WSW 11.5 mph - 0.00 in   Light Drizzle
3:55 PM 71.8 °F 70.3 °F 95% 30.01 in 10.0 mi West 8.1 mph - 0.00 in   Light Drizzle
4:55 PM 70.3 °F 70.3 °F 100% 30.01 in 10.0 mi WNW 6.9 mph - 0.00 in   Light Drizzle
5:11 PM 69.8 °F 69.8 °F 100% 30.01 in 10.0 mi West 5.8 mph - N/A   Clear
5:55 PM 69.8 °F 69.8 °F 100% 30.02 in 10.0 mi West 3.5 mph - 0.00 in   Clear
6:55 PM 69.8 °F 69.8 °F 100% 30.02 in 10.0 mi West 6.9 mph - N/A   Clear
7:55 PM 69.4 °F 69.4 °F 100% 30.03 in 10.0 mi WNW 10.4 mph - N/A   Clear
8:55 PM 67.6 °F 67.1 °F 98% 30.03 in 10.0 mi NNW 5.8 mph - N/A   Partly Cloudy
9:55 PM 66.6 °F 64.4 °F 93% 30.04 in 10.0 mi NNW 5.8 mph - N/A   Clear
10:55 PM 65.8 °F 63.3 °F 92% 30.04 in 10.0 mi North 6.9 mph - N/A   Clear